一网星座-0497星 (ONEWEB-0497 )

导读

ONEWEB-0497是英国OneWeb星座计划中的一颗低轨通信卫星,于2022年10月22日发射升空。OneWeb由英国政府与印度Bharti集团控股,旨在通过部署近地轨道卫星群,为全球偏远地区提供高速宽带互联网接入服务。卫星运行于约1200公里轨道,单颗质量不足150公斤,依靠离子推进器调整轨道,是OneWeb构建全球卫星网络的重要组成部分,兼具商业通信与潜在战略价值。

基本信息
目录编号:
54116
目录名称:
ONEWEB-0497
国际标识:
2022-138D
轨道中心:
EARTH
卫星名称:
一网星座-0497星
卫星全名:
一网星座-0497星 (ONEWEB-0497 )
卫星状态:
在轨 (已飞行1424 天)
发射日期:
2022-10-22 UTC
国别 :
英国 (GB)
星等 :
--
该卫星已列入 空间交会检测服务 Space Conjunction Data Service (SCDS) ,当前飞行风险评估等级: 无高风险
轨道信息
数据来源 国际轨道数据 AOE轨道数据
星历时间 2026-09-15T09:39:30+0800
21小时前
查看轨道信息
2026-09-15T23:00:00+0800
8小时前
查看轨道信息
半长轴 7563.902km 7563.883km
偏心率 0.0001947 0.0001976
轨道倾角 87.912° 87.914°
近地点辐角 90.103° 64.765°
升交点赤经 287.061° 286.949°
平近点角 270.032° 54.989°
近地点 1184.292km 1184.251km
远地点 1187.238km 1187.241km
周期 109.114分钟 109.113分钟
每日圈数 13.197267 13.197315
详细信息
平衡模式:
三轴稳定
覆盖范围:
全球
运营商:
一网卫星公司
运营商所在国:
英国
制造商(研发单位):
一网卫星公司
制造商所在国:
英国
使用方式:
暂无
卫星简介
OneWeb卫星网络由648颗重约125公斤的微型卫星组成,运行在1200公里的轨道上。 每颗卫星都能够提供至少每秒8千兆位的吞吐量,以使用其高吞吐量的Ku频段有效载荷为家庭和移动平台提供互联网接入。该卫星仍在工作。
2D轨道图
3D轨道图
轨道高度分析图
轨道倾角分析图
轨道综合分析图
查看轨道综合分析图
与全量物体交会距离演化趋势 订阅飞行安全评估服务
与全量物体交会风险概率演化趋势 订阅飞行安全评估服务